Weather in Vvedenskoye

Russia / Oryol Oblast     52°16′37″N   37°24′44″E
temp.,
°C
wind,
m/s
gust,
m/s
humid.,
%
clouds,
%
prec.,
mm/h
press.,
hPa
HPBL,
m
21 april, wed
wed2100:00+4nne4893100 0.2 1005532
03:00+3n4497100 1.3 1004506
06:00+3nw3698100 1.3 1005394
09:00+4wnw3590100 1.3 1008541
12:00+7w5675100 0.1 1010925
15:00+7sw4674100 0.1 10111049
18:00+6sw4687100 0.1 1012739
21:00+6sw4793100 0.3 1014421
22 april, thu
thu2200:00+5wsw479099 0.3 1016540
03:00+4sw34925 0.3 101796
06:00+3ssw379440 0.0 1018156
09:00+9ssw5776100 0.0 1019520
12:00+13sw686094 0.0 10191344
15:00+14ssw685289 0.5 10181892
18:00+12s5106766 0.4 1018368
21:00+9ssw497840 0.5 1019177
23 april, fri
fri2300:00+9s497891 0.0 1019163
03:00+9s41175100 0.0 1018220
06:00+9s4117999 0.0 1018236
09:00+13s610635 0.0 1018693
12:00+16s7945100 0.1 10162495
15:00+15s695745 0.3 10151563
18:00+13s596571 0.7 1013434
21:00+10s5137736 1.8 1013407
24 april, sat
sat2400:00+10s5148391 0.1 1011755
03:00+8w2392100 1.1 1009405
06:00+3wnw71197100 4.4 1010510
09:00+4wnw51096100 6.7 1011585
12:00+5w5784100 1.1 1012794
15:00+8wnw6857100 2.7 10111590
18:00+8wsw255696 0.8 1012703
21:00+4wsw377740 0.9 1013130
25 april, sun
sun2500:00+3w358437 0.1 101392
03:00+2w358695 0.1 101392
06:00+2w38895 0.0 1014250
09:00+6wsw686414 0.0 10141202
12:00+7w6755100 0.8 10141728
15:00+7w7957100 2.2 10141621
18:00+7wsw6860100 0.4 10141403
21:00+3sw410805 0.6 1015322